Terminal Aerodrome Forecast
Issued by NWS

Home | Current Version | Previous Version | Text Only | Print | Product List | Glossary On
Versions: 1 2 3 4 5 6 7 8 9 10 11 12 13 14 15 16 17 18 19 20 21 22 23 24 25 26 27 28 29 30 31 32 33 34
000
FTUS41 KRNK 210520
TAFBCB
TAF
KBCB 210520Z 2106/2206 00000KT P6SM FEW250
     FM211700 30005KT P6SM VCTS SCT050CB
     FM212000 29005KT P6SM BKN050
     FM220300 00000KT P6SM BKN120=

USA.gov is the U.S. government's official web portal to all federal, state and local government web resources and services.